Weather Roundup
Issued by NWS

Home | Current Version | Previous Version | Text Only | Print | Product List | Glossary On
Versions: 1 2 3 4 5 6 7 8 9 10 11 12 13 14 15 16 17 18 19 20 21 22 23 24 25 26 27 28 29 30 31 32 33 34 35 36 37 38 39 40 41 42 43 44 45 46 47 48 49 50
115
NZUS93 KARX 040610
HRRWXR

CURRENT HOURLY OBSERVATIONS ACROSS
MUCH OF THE UPPER MISSISSIPPI VALLEY
NATIONAL WEATHER SERVICE LA CROSSE WI
100 AM CDT WED MAY 04 2016


...SOUTHEAST MINNESOTA...


CITY           SKY/WX    TMP DP  RH WIND       PRES   REMARKS
ROCHESTER      CLEAR     50  41  71 N10       29.79R
ROCHESTER/MAYO FAIR      54  39  58 N5        29.79R
WINONA         CLEAR     54  43  66 CALM      29.77R
AUSTIN         CLEAR     52  34  50 N7        29.78R
ALBERT LEA     CLEAR     54  30  40 N10G16    29.79R
DODGE CENTER   PTCLDY    48  34  57 N7        29.80R
PRESTON        CLEAR     49  41  74 N8        29.76R
OWATONNA       CLEAR     52  28  40 N9        29.81R
FARIBAULT      CLEAR     55  30  38 VRB8      29.82R
$$

...ELSEWHERE IN MINNESOTA...


CITY           SKY/WX    TMP DP  RH WIND       PRES   REMARKS
MINNEAPOLIS    CLEAR     56  31  38 N13       29.84R
INTNL FALLS    CLEAR     34  29  82 NW6       29.94R WCI  29
DULUTH         CLEAR     46  32  58 N9        29.89R
RED WING       CLEAR     55  30  38 N8        29.80R
REDWOOD FALLS  CLEAR     53  28  38 N10       29.88R
MANKATO        CLEAR     54  28  37 N14       29.83R
WORTHINGTON    CLEAR     48  34  58 N13       29.90R
FAIRMONT       CLEAR     52  30  43 NW10      29.83R
$$

...SOUTHWEST WISCONSIN...


CITY           SKY/WX    TMP DP  RH WIND       PRES   REMARKS
LA CROSSE      CLEAR     48  45  89 N7        29.74R
PRAIRIE DU CHI PTCLDY    48  47  96 CALM      29.71R
LONE ROCK      PTCLDY    49  46  90 CALM      29.71R
PLATTEVILLE    PTCLDY    48  47  96 NW3       29.70R
FORT MC COY    CLEAR     42  42 100 N5        29.75R FOG
CAMP DOUGLAS   FOG       39  39 100 NW3       29.72R VSB 1/2
MAUSTON-NEW LI CLEAR     45  45  99 NW6       29.71R FOG
VIROQUA        FAIR      45  45 100 N6        29.72R
WIS DELLS      CLOUDY    46  45  93 N5        29.70R
$$

...ELSEWHERE IN WISCONSIN...


CITY           SKY/WX    TMP DP  RH WIND       PRES   REMARKS
MILWAUKEE      LGT RAIN  50  46  86 NE10      29.64F
MADISON        CLOUDY    46  45  96 NW3       29.67R FOG
GREEN BAY      LGT RAIN  47  43  86 N13       29.70R
EAU CLAIRE     CLEAR     50  37  61 N10       29.79R
BLACK RVR FLS  FAIR      45  45 100 CALM      29.74R
MEDFORD        PTCLDY    41  39  93 N7        29.76R
WAUSAU         CLEAR     44  42  93 N6        29.72R
WIS RAPIDS     CLEAR     43  41  93 N7        29.74R
MARSHFIELD     CLEAR     46  42  86 N8        29.73R
RICE LAKE      CLEAR     49  32  52 NE13      29.85R
$$

...NORTHEAST IOWA...


CITY           SKY/WX    TMP DP  RH WIND       PRES   REMARKS
WATERLOO       CLEAR     52  44  74 N13       29.71
DUBUQUE        CLOUDY    48  46  93 CALM      29.69F
DECORAH        PTCLDY    52  46  82 N8G14     29.72R
MASON CITY     CLEAR     51  35  54 NW13      29.78R
CHARLES CITY   CLEAR     54  39  58 N13G18    29.74R
OELWEIN        CLEAR     50  46  87 NE5       29.71R
$$

...ELSEWHERE IN IOWA...


CITY           SKY/WX    TMP DP  RH WIND       PRES   REMARKS
DES MOINES     MOCLDY    62  43  49 NW14      29.76S
IOWA CITY      CLOUDY    55  49  80 CALM      29.69F
FORT DODGE     PTCLDY    54  34  47 N9        29.81R
MARSHALLTOWN   CLEAR     54  40  59 NW15      29.72R
CEDAR RAPIDS   PTCLDY    57  48  72 N6G20     29.68R
$$

...NORTHERN ILLINOIS...


CITY           SKY/WX    TMP DP  RH WIND       PRES   REMARKS
CHICAGO-OHARE  CLOUDY    57  42  57 SW15      29.61F
CHICAGO-MIDWAY CLOUDY    59  40  49 SW16G24   29.64F
MOLINE         TSTM      54  47  77 N18G31    29.71R
ROCKFORD       TSTM      50  46  86 N17       29.72S
PEORIA         CLOUDY    56  43  61 SW10      29.71F
$$

NOTE: "FAIR" INDICATES FEW OR NO CLOUDS BELOW 12,000 FEET WITH NO
SIGNIFICANT WEATHER AND/OR OBSTRUCTIONS TO VISIBILITY. WIND
SPEEDS ARE IN MILES-PER-HOUR.




USA.gov is the U.S. government's official web portal to all federal, state and local government web resources and services.